Temp
-10 -10 -11 -11 -11 -11 -11 -11 -11 -10 -10 -10 -10 -11 -11 -10 -10 -10 -10 -10 -11 -11 -11 -11 -11 -11 -11 -11 -11 -11 -11 -11
-10 -11 -11 -11 -11 -11 -11 -11 -11 -11 -11 -11 -11 -11 -11 -11 -11 -10 -11 -11 -11 -11 -11 -11 -11 -11 -11 -11 -11 -12 -12 -12
-11 -11 -11 -11 -11 -11 -11 -11 -11 -11 -11 -11 -11 -11 -11 -11 -11 -11 -11 -11 -11 -11 -11 -11 -11 -11 -11 -11 -12 -12 -12 -12
-11 -11 -11 -11 -11 -11 -11 -11 -11 -11 -11 -11 -11 -11 -11 -11 -11 -11 -11 -11 -11 -11 -11 -11 -11 -11 -11 -11 -11 -11 -11 -11
-11 -11 -11 -11 -11 -11 -11 -11 -11 -11 -11 -11 -11 -11 -11 -11 -11 -11 -11 -11 -11 -11 -11 -11 -11 -11 -11 -11 -11 -11 -11 -11
-11 -11 -11 -11 -11 -11 -11 -11 -11 -11 -10 -11 -11 -11 -11 -11 -11 -11 -11 -11 -11 -11 -11 -11 -11 -11 -11 -11 -10 -10 -10 -11
-11 -11 -11 -12 -11 -11 -11 -11 -11 -11 -11 -11 -11 -11 -11 -11 -11 -11 -11 -11 -11 -11 -11 -11 -11 -11 -11 -11 -11 -10 -11 -11
-11 -11 -11 -12 -12 -11 -11 -11 -11 -11 -11 -11 -11 -11 -11 -11 -11 -11 -11 -11 -11 -11 -11 -11 -11 -11 -11 -11 -11 -11 -11 -11
-11 -11 -12 -12 -12 -11 -11 -11 -11 -11 -11 -11 -11 -11 -12 -12 -12 -12 -12 -12 -12 -12 -11 -11 -11 -12 -12 -12 -12 -12 -12 -12
-11 -11 -11 -12 -12 -11 -11 -11 -11 -11 -11 -11 -12 -12 -12 -12 -12 -12 -12 -12 -12 -12 -12 -12 -12 -12 -13 -12 -12 -13 -13 -14
-11 -11 -11 -12 -12 -12 -12 -12 -11 -11 -11 -12 -12 -12 -12 -12 -12 -12 -12 -12 -12 -12 -12 -12 -12 -13 -14 -14 -14 -14 -15 -15
-11 -12 -12 -12 -12 -12 -12 -12 -12 -12 -12 -13 -13 -13 -13 -13 -13 -13 -13 -13 -12 -12 -13 -13 -13 -14 -14 -15 -15 -15 -16 -16
-12 -12 -12 -12 -12 -12 -12 -12 -12 -13 -13 -13 -13 -13 -13 -13 -13 -13 -13 -13 -13 -13 -14 -14 -14 -14 -15 -15 -15 -16 -16 -16
-12 -12 -12 -12 -12 -13 -13 -13 -13 -13 -14 -14 -14 -14 -14 -14 -14 -13 -14 -14 -14 -15 -15 -15 -15 -15 -15 -15 -16 -17 -17 -17
-12 -12 -13 -13 -13 -13 -13 -13 -14 -14 -14 -14 -14 -14 -14 -14 -14 -14 -15 -15 -16 -16 -16 -16 -16 -16 -16 -16 -16 -17 -17 -18
-13 -13 -13 -13 -13 -13 -14 -14 -14 -14 -14 -15 -15 -15 -15 -15 -15 -15 -16 -16 -16 -16 -16 -16 -16 -16 -17 -17 -17 -17 -17 -17
-13 -13 -14 -14 -14 -14 -14 -14 -14 -14 -15 -15 -16 -15 -15 -16 -16 -16 -16 -16 -16 -16 -17 -17 -17 -17 -18 -18 -18 -18 -18 -18
-14 -14 -14 -15 -15 -15 -15 -15 -15 -15 -16 -16 -16 -16 -17 -17 -17 -17 -17 -17 -17 -17 -18 -17 -18 -19 -19 -19 -19 -19 -20 -20
-15 -15 -15 -15 -15 -15 -15 -15 -16 -17 -17 -17 -17 -17 -17 -18 -17 -17 -17 -18 -18 -18 -18 -19 -19 -19 -19 -19 -20 -20 -20 -20
-15 -15 -15 -15 -15 -15 -15 -16 -17 -17 -17 -18 -17 -18 -18 -18 -18 -18 -18 -19 -19 -19 -20 -20 -20 -20 -20 -20 -21 -21 -21 -21
Height
5835 5834 5833 5831 5830 5830 5829 5828 5827 5827 5827 5826 5825 5824 5823 5822 5821 5820 5819 5817 5816 5815 5813 5811 5809 5807 5806 5805 5803 5801 5798 5795
5832 5831 5829 5827 5826 5825 5825 5825 5824 5824 5823 5823 5822 5821 5820 5818 5817 5816 5815 5813 5812 5810 5809 5807 5805 5804 5802 5800 5798 5796 5794 5791
5828 5827 5826 5824 5823 5822 5822 5821 5820 5820 5820 5819 5818 5817 5816 5814 5812 5811 5810 5809 5807 5806 5804 5802 5801 5799 5797 5795 5792 5789 5787 5784
5824 5823 5822 5821 5820 5819 5818 5817 5816 5816 5815 5815 5814 5813 5812 5811 5810 5808 5807 5805 5803 5801 5799 5797 5795 5793 5790 5787 5785 5782 5779 5776
5819 5818 5818 5817 5815 5815 5814 5813 5812 5811 5810 5810 5809 5809 5807 5806 5805 5804 5802 5800 5798 5796 5793 5791 5788 5785 5782 5779 5776 5773 5770 5768
5814 5813 5812 5812 5811 5810 5810 5808 5807 5807 5806 5805 5804 5803 5802 5800 5799 5797 5795 5792 5790 5787 5784 5781 5778 5776 5772 5769 5766 5763 5760 5757
5808 5808 5806 5806 5806 5805 5804 5803 5803 5802 5801 5800 5799 5797 5795 5793 5791 5789 5786 5783 5781 5778 5775 5772 5769 5765 5762 5758 5755 5752 5749 5746
5801 5801 5800 5800 5800 5799 5798 5797 5796 5796 5794 5793 5792 5790 5788 5785 5783 5780 5777 5775 5772 5769 5765 5762 5759 5755 5751 5747 5744 5741 5737 5734
5794 5794 5794 5793 5793 5792 5792 5791 5790 5789 5787 5785 5784 5782 5780 5777 5775 5772 5769 5766 5762 5759 5755 5752 5748 5744 5740 5736 5732 5728 5724 5721
5788 5787 5786 5786 5787 5786 5785 5784 5783 5782 5780 5777 5776 5773 5771 5769 5766 5763 5759 5756 5752 5749 5745 5741 5736 5731 5727 5723 5719 5715 5711 5708
5780 5780 5779 5779 5779 5779 5778 5777 5776 5774 5772 5769 5767 5765 5763 5760 5757 5753 5749 5745 5741 5738 5734 5730 5725 5720 5714 5710 5707 5702 5698 5695
5772 5772 5771 5772 5771 5770 5769 5768 5766 5765 5763 5760 5758 5755 5752 5749 5746 5742 5738 5734 5730 5726 5722 5719 5714 5709 5702 5697 5693 5688 5683 5680
5764 5765 5764 5763 5763 5762 5761 5759 5757 5755 5753 5751 5748 5744 5741 5737 5734 5730 5726 5722 5717 5712 5708 5704 5700 5696 5691 5683 5678 5674 5668 5665
5756 5755 5755 5755 5754 5753 5752 5750 5748 5746 5744 5741 5737 5734 5730 5727 5723 5718 5713 5708 5703 5699 5695 5691 5687 5684 5679 5675 5670 5662 5654 5650
5746 5747 5746 5745 5744 5744 5742 5740 5739 5737 5734 5730 5726 5722 5718 5714 5709 5705 5700 5695 5690 5686 5683 5679 5673 5667 5665 5659 5655 5652 5648 5637
5738 5738 5737 5736 5735 5734 5732 5731 5729 5726 5722 5719 5714 5709 5705 5701 5696 5692 5687 5682 5678 5673 5669 5665 5659 5653 5645 5641 5636 5633 5632 5633
5730 5728 5727 5726 5725 5724 5722 5720 5717 5715 5712 5708 5702 5697 5693 5687 5682 5678 5674 5670 5665 5659 5654 5649 5645 5638 5632 5626 5620 5614 5610 5608
5721 5719 5717 5716 5715 5713 5710 5708 5705 5702 5700 5697 5692 5685 5679 5674 5669 5664 5659 5655 5650 5645 5639 5634 5628 5623 5617 5612 5608 5602 5594 5589
5711 5708 5706 5705 5703 5701 5698 5696 5692 5689 5688 5685 5678 5672 5666 5661 5656 5651 5645 5641 5636 5631 5625 5619 5614 5609 5604 5597 5591 5584 5579 5573
5701 5699 5695 5693 5692 5689 5686 5683 5679 5677 5673 5669 5664 5658 5653 5648 5641 5636 5631 5626 5621 5616 5611 5606 5600 5594 5589 5583 5576 5569 5563 5557
Wind_Speed
20 18 18 17 14 12 13 13 11 10 10 11 13 12 11 12 13 14 16 18 19 20 21 21 22 23 24 26 27 27 29 31
18 17 17 15 14 13 13 13 13 12 12 14 14 12 13 16 17 17 19 20 22 23 25 26 27 28 30 31 32 32 33 34
17 17 16 14 12 12 12 12 13 13 15 16 16 17 17 18 19 21 23 25 27 28 29 30 31 32 33 35 36 37 38 40
19 18 16 15 13 12 12 13 14 15 16 17 18 18 19 21 23 25 27 28 30 31 32 33 35 35 37 39 40 42 43 44
21 19 18 16 16 16 17 16 17 17 18 18 19 20 22 24 25 26 29 31 33 36 38 38 39 41 41 42 44 46 47 48
24 22 21 20 20 20 20 19 19 19 20 21 21 22 23 26 29 30 32 33 35 39 42 44 44 45 45 46 47 49 51 53
28 26 25 25 24 23 22 22 22 22 23 25 26 26 28 30 32 34 36 39 42 45 46 46 47 48 48 50 51 53 55 58
31 31 30 29 28 27 26 26 26 26 28 29 30 31 34 35 38 40 42 43 46 48 50 50 51 53 54 55 57 58 60 63
34 34 33 32 31 31 31 31 31 30 31 33 34 37 39 40 43 45 47 48 50 52 53 54 55 58 60 60 60 61 63 67
37 37 36 35 33 33 34 34 34 34 36 37 39 41 43 46 48 50 52 54 55 56 57 56 58 59 60 62 62 63 65 65
39 39 38 37 36 36 36 35 36 38 40 41 43 45 47 50 52 54 56 58 59 60 59 58 59 59 59 59 60 60 59 58
39 40 39 38 38 37 37 38 39 41 42 43 45 48 51 53 55 56 59 60 61 61 61 61 61 60 59 58 59 58 58 58
38 39 39 38 39 40 39 40 42 43 44 46 49 51 54 56 57 59 61 62 60 60 60 60 62 61 59 59 60 60 61 61
39 39 38 37 38 40 40 42 43 45 46 49 52 54 56 59 62 63 63 61 61 61 59 60 59 59 58 57 56 59 61 63
41 41 39 39 39 40 41 43 45 47 49 51 53 56 61 63 64 63 62 61 59 59 60 60 60 60 61 60 57 56 55 62
42 41 39 40 40 42 44 46 47 49 51 53 57 61 63 63 63 62 61 61 60 60 60 62 63 63 62 59 59 60 61 60
39 39 40 42 43 45 47 50 53 56 54 54 60 65 66 62 61 62 63 61 60 61 63 63 63 62 60 61 63 65 66 64
38 39 41 43 46 47 51 53 58 52 55 61 66 62 58 59 62 62 61 62 62 63 63 63 62 60 62 63 65 64 64 61
41 44 45 48 50 53 53 60 56 55 57 63 59 57 57 61 62 62 61 62 63 62 63 61 61 62 64 63 63 64 62 60
42 48 52 52 55 56 59 59 52 55 61 61 57 54 60 62 60 60 62 62 61 62 60 60 61 61 62 62 63 62 61 60
Wind_Direction
306 306 303 299 301 305 308 311 302 300 300 300 302 304 303 302 301 303 308 312 312 310 308 307 307 307 305 304 302 302 303 304
295 295 294 293 299 298 299 298 296 290 288 290 295 298 300 300 297 301 307 312 309 308 305 303 302 303 302 301 301 300 299 300
284 287 290 292 296 291 285 280 280 284 289 294 294 296 301 301 301 304 307 309 306 304 302 301 300 300 300 299 299 299 299 302
281 280 280 285 286 280 274 271 275 279 283 286 293 300 304 305 304 306 304 303 302 303 303 302 301 300 300 300 300 300 300 300
277 278 275 280 284 280 272 269 270 277 282 286 290 295 297 300 303 305 305 305 306 306 305 303 301 301 300 299 299 299 299 298
276 274 273 276 281 284 275 270 273 278 286 288 289 290 293 296 301 305 307 310 313 314 310 306 304 302 299 297 295 295 295 296
278 272 270 271 278 284 281 276 277 281 286 285 284 285 291 297 302 305 305 307 311 315 314 309 304 300 297 294 292 290 291 298
276 275 271 272 276 281 284 280 281 281 283 282 281 283 289 295 299 301 304 307 309 311 313 310 306 301 297 294 293 295 298 299
273 274 272 273 275 278 281 283 283 280 283 282 282 285 290 296 300 302 305 307 308 308 308 305 302 300 299 297 298 299 301 302
272 272 271 271 273 275 280 284 283 280 282 283 283 286 290 295 298 301 303 305 306 307 305 302 301 300 299 298 298 300 301 301
268 270 270 270 272 274 279 283 281 282 283 283 285 287 291 295 298 300 302 303 303 303 300 299 300 299 300 301 301 303 301 299
265 268 270 271 273 275 278 281 281 282 283 284 286 289 292 295 297 299 300 301 300 299 299 299 299 299 300 302 302 299 297 296
269 272 272 272 273 274 276 278 280 282 284 287 290 292 294 295 296 298 298 297 297 298 299 299 299 300 301 300 299 298 296 296
266 267 270 272 272 273 273 276 279 283 287 289 292 293 295 296 298 297 296 297 298 300 301 301 300 299 298 297 294 294 294 292
263 267 270 270 270 271 274 277 280 284 287 290 293 295 297 297 296 296 297 298 300 301 301 301 300 300 297 295 292 290 289 294
263 265 267 269 269 270 274 277 280 283 286 290 296 296 296 296 296 296 297 299 302 301 301 301 301 298 295 294 293 293 292 289
264 265 266 267 270 272 274 276 279 282 291 295 295 297 296 295 296 297 298 300 301 300 300 300 299 296 294 295 296 297 297 296
265 266 268 269 271 273 273 276 281 287 291 290 293 294 294 296 297 298 299 301 300 299 299 299 296 296 297 298 298 299 299 297
264 267 268 269 272 272 276 282 283 292 287 293 296 295 297 297 298 299 299 299 299 300 298 298 298 299 300 300 301 302 300 299
261 263 261 264 271 273 273 278 290 286 293 297 297 296 293 296 298 297 298 299 300 298 299 299 301 302 301 304 304 303 303 303